Torna al catalogo

TIANMU-1 05

AttivoMeteoSSO
NORAD 55975·PAYLOAD·🇨🇳 China

Lanciato Mar 22, 2023 da Jiuquan Satellite Launch Center

Loading…

Prossimi Passaggi (prossime 24 ore)

TLE

AggiornatoSource: Space-Track

Epoca: Sep 14, 2026, 14:27 UTC

1 55975U 23039C   26257.60242701  .00013051  00000-0  23857-3 0  9990
2 55975  97.5248  74.8440 0003509 132.4940 227.6608 15.49511395194654

Traccia TIANMU-1 05 in tempo reale con AllMySat

Download on the App Store